Location: Rounton
(54.4000°N, 1.3500°W)
Time: 12:18:08
(UTC+01:00)

Vanguard 1 - Pass Details

Date: 26 February 2024
Orbit: 653 x 3825 km, 34.2° (Epoch: 22 April)

Event Time Altitude Azimuth Distance (km) Brightness Sun altitude
Rises 22:00:33 0° 250° (WSW) 6,064 14.4 -36.6°
Reaches altitude 10° 22:04:21 10° 243° (WSW) 5,431 14.0 -37.0°
Enters shadow 22:18:39 40° 190° (S) 4,473 13.0 -38.4°
